This is the latest recevied weather packets stored in our database for station/object W0WC. If no packets are shown the sender has not sent any weather packets the latest 10 day(s).
| Time | Temp. | Humidity | Pressure | Rain* | Wind** | Luminosity | Snow |
|---|---|---|---|---|---|---|---|
| 1778093878 | 15.56° C | 45% | 1018.2 hPa | 0 mm | - | 803 W/m² | - |
| 1778093575 | 16.11° C | 44% | 1018.3 hPa | 0 mm | - | 809 W/m² | - |
| 1778093272 | 15.56° C | 44% | 1018.3 hPa | 0 mm | - | 816 W/m² | - |
| 1778092969 | 15.56° C | 45% | 1018.3 hPa | 0 mm | - | 806 W/m² | - |
| 1778092666 | 15.56° C | 43% | 1018.4 hPa | 0 mm | - | 810 W/m² | - |
| 1778092366 | 15° C | 45% | 1018.4 hPa | 0 mm | - | 810 W/m² | - |
| 1778092064 | 15.56° C | 44% | 1018.5 hPa | 0 mm | - | 805 W/m² | - |
| 1778091761 | 15.56° C | 45% | 1018.5 hPa | 0 mm | - | 807 W/m² | - |
| 1778091459 | 15.56° C | 45% | 1018.7 hPa | 0 mm | - | 813 W/m² | - |
| 1778091156 | 15.56° C | 47% | 1019 hPa | 0 mm | - | 810 W/m² | - |
| 1778090853 | 15.56° C | 45% | 1018.9 hPa | 0 mm | - | 811 W/m² | - |
| 1778090554 | 15.56° C | 42% | 1018.9 hPa | 0 mm | - | 744 W/m² | - |
| 1778090251 | 15.56° C | 46% | 1019.2 hPa | 0 mm | - | 810 W/m² | - |
| 1778089947 | 15.56° C | 45% | 1019.3 hPa | 0 mm | - | 793 W/m² | - |
| 1778089645 | 15.56° C | 45% | 1019.1 hPa | 0 mm | - | 829 W/m² | - |
| 1778089342 | 15° C | 47% | 1019.2 hPa | 0 mm | - | 837 W/m² | - |
| 1778089040 | 14.44° C | 46% | 1019.2 hPa | 0 mm | - | 803 W/m² | - |
| 1778088736 | 15° C | 44% | 1019.1 hPa | 0 mm | - | 814 W/m² | - |
| 1778088433 | 15° C | 47% | 1019.2 hPa | 0 mm | - | 819 W/m² | - |
| 1778088130 | 15° C | 46% | 1019.2 hPa | 0 mm | - | 806 W/m² | - |
| 1778087827 | 13.89° C | 47% | 1019.1 hPa | 0 mm | - | 810 W/m² | - |
| 1778087525 | 13.89° C | 47% | 1019.1 hPa | 0 mm | - | 719 W/m² | - |
| 1778087222 | 13.89° C | 47% | 1019.3 hPa | 0 mm | - | 518 W/m² | - |
| 1778086919 | 13.89° C | 46% | 1019.5 hPa | 0 mm | - | 495 W/m² | - |
| 1778086617 | 13.89° C | 49% | 1019.6 hPa | 0 mm | - | 387 W/m² | - |
* Rain latest hour (hover to see other rain measurements)
** Current wind speed in m/s (hover to see current wind gust speed)